Torna al catalogo

INTELSAT 801

AttivoComunicazioniGEO
NORAD 24742·PAYLOAD· XX

Lanciato Mar 1, 1997 da Guiana Space Centre

Loading…

TLE

AggiornatoSource: Space-Track

Epoca: Sep 14, 2026, 11:03 UTC

1 24742U 97009A   26257.46107286 -.00000006  00000-0  00000-0 0  9997
2 24742  12.3824  32.4634 0007478  12.0242 336.6975  0.98734730107536

Traccia INTELSAT 801 in tempo reale con AllMySat

Download on the App Store